Theta_e
317 319 321 323 324 326 331 335 330 322 321 318 322 325 318 318 323 326 326 325 324 314 306 305 306 308 312 311 306 302 302 306 307 314 316 301 294 292 291 291 291 292 293 296 299 301 302 304 306 307 308 308 308 309 309 310 311 311 311 311 312 312 313 313 314 315 315 315 317 320 323 324 325 326 326 326 326 326 324 324 324 324 325 327 327 327 329 329 330 330 330 329 329 328 327 324 322
319 321 322 324 325 327 334 334 329 321 317 313 315 318 315 317 320 319 321 322 319 311 304 301 301 302 304 302 301 301 299 298 301 303 297 292 294 291 290 291 292 293 293 294 296 299 301 303 305 305 306 307 307 306 307 307 308 309 309 310 310 310 310 311 311 312 313 313 313 315 317 320 322 323 324 325 325 326 325 325 325 324 324 325 326 326 327 328 328 329 330 329 329 328 328 326 324
319 322 322 324 326 330 337 334 329 322 314 312 312 313 314 316 316 312 313 315 312 306 303 302 301 300 302 303 301 303 300 295 295 298 292 290 292 289 290 291 292 293 293 293 293 295 299 302 303 304 305 305 306 305 305 305 306 307 307 307 308 309 309 309 309 309 310 311 311 312 313 314 317 318 320 321 322 324 325 325 325 325 323 324 325 325 326 326 327 327 328 329 329 329 329 328 325
316 321 321 325 332 333 337 331 328 323 314 315 312 310 314 314 314 310 308 309 307 307 307 304 300 297 300 301 300 301 299 295 292 293 291 289 290 289 291 291 292 293 292 292 292 293 296 301 302 302 303 303 304 304 304 304 304 305 305 305 306 307 307 307 307 307 307 307 309 309 310 311 313 315 316 317 318 320 322 323 324 325 324 324 324 324 325 325 326 326 326 327 328 328 329 328 327
316 321 318 324 333 330 327 320 322 320 314 320 315 309 311 311 314 309 304 305 304 307 308 305 301 296 296 296 298 299 296 294 291 291 290 289 289 290 291 291 292 293 293 292 291 292 293 299 301 300 301 301 302 302 302 303 303 304 303 303 304 305 305 305 305 305 305 305 305 306 307 308 309 311 312 313 314 316 317 319 320 323 324 324 324 324 324 324 325 325 325 325 326 327 327 328 328
317 320 315 319 321 317 318 313 313 313 310 319 315 309 310 309 312 309 305 305 303 304 304 302 301 297 294 292 293 294 293 294 291 290 290 289 290 290 291 291 292 293 292 291 292 291 292 296 298 299 299 299 300 300 301 301 301 302 302 302 302 303 303 304 303 304 303 303 303 303 304 305 306 308 309 309 310 312 314 315 316 318 321 323 324 324 324 324 324 324 324 325 325 326 326 328 328
317 321 321 321 317 312 313 311 311 311 308 312 312 309 310 308 308 309 309 310 305 302 301 298 298 298 295 293 292 291 291 293 290 290 290 289 290 291 291 292 292 292 291 291 291 291 291 292 295 297 297 297 298 298 299 299 299 300 301 300 300 301 302 302 302 302 302 302 302 301 302 302 304 305 306 307 307 308 311 312 313 314 316 319 321 323 324 324 323 323 324 324 325 325 326 327 327
317 320 320 317 317 316 312 310 310 312 309 308 309 310 310 309 308 307 306 308 304 300 302 298 297 300 296 294 293 290 290 291 290 289 289 289 290 290 291 291 292 291 290 290 290 290 290 290 292 294 295 295 295 296 297 297 297 298 299 299 299 299 299 300 300 300 300 300 300 300 300 301 301 302 303 304 305 305 307 309 311 312 312 314 317 319 321 321 322 323 323 324 324 325 325 327 327
316 317 319 313 313 314 311 310 309 308 309 307 308 308 307 307 306 305 303 302 300 297 298 298 299 301 295 293 292 290 289 289 289 289 289 289 289 290 290 290 290 290 289 289 289 289 290 289 289 291 292 293 293 294 294 296 296 296 297 297 297 297 297 298 298 298 298 298 299 299 299 299 300 300 301 302 302 302 304 307 308 309 310 311 312 314 316 317 319 321 322 323 323 324 324 325 326
316 315 318 315 311 309 307 308 308 305 306 306 306 305 304 303 303 302 302 300 298 296 295 295 297 297 294 294 293 291 289 288 288 289 288 289 289 289 290 289 289 289 289 289 289 289 289 289 289 289 290 290 290 291 291 292 294 295 294 295 296 296 296 296 297 296 296 296 297 297 296 296 297 298 299 300 300 300 301 303 305 307 308 308 308 310 312 314 316 316 318 320 321 323 323 324 325
321 320 318 317 314 310 308 306 306 304 303 304 303 303 302 301 301 300 300 299 298 297 296 295 295 293 293 293 293 291 289 288 289 288 288 288 289 289 289 289 289 289 289 289 289 289 289 289 289 289 289 289 289 289 289 289 291 293 292 293 294 295 296 295 295 296 295 295 295 295 294 294 294 295 297 298 299 298 299 300 302 304 305 306 306 307 309 311 312 313 314 314 316 320 321 322 323
321 321 321 320 316 311 308 307 305 303 301 302 302 302 300 299 302 300 298 299 298 298 297 296 295 293 293 293 292 290 289 288 288 288 288 288 289 289 289 289 289 288 289 288 289 288 288 288 288 288 288 288 288 288 288 287 288 290 290 291 292 293 294 294 294 294 294 294 294 293 293 292 292 293 294 295 297 297 297 298 299 301 303 304 303 304 306 307 308 310 311 311 312 315 318 319 321
320 319 322 314 311 310 307 307 306 304 302 302 301 300 299 298 300 298 298 298 297 298 297 295 294 293 294 293 291 289 288 288 287 288 288 289 289 288 288 288 288 288 288 288 288 288 288 288 287 287 287 287 287 287 287 286 286 288 288 288 289 289 291 292 292 292 291 292 293 293 292 291 290 292 292 293 294 294 295 295 297 299 300 301 301 301 304 305 305 306 307 308 308 311 314 315 318
319 320 322 311 307 310 308 307 306 305 302 301 300 298 299 298 297 296 297 299 297 296 295 293 293 294 294 292 291 290 288 288 287 288 288 288 288 288 288 288 288 288 288 288 288 287 287 287 287 286 286 286 286 286 286 286 285 286 286 285 287 287 288 289 289 289 288 288 290 291 290 289 288 289 291 291 292 293 293 293 294 297 298 299 299 298 301 302 303 304 304 304 305 307 310 312 315
317 319 321 315 308 307 307 306 305 305 301 300 300 297 297 295 296 297 296 298 296 292 293 294 293 295 295 293 293 290 288 288 287 288 288 288 288 288 288 288 288 288 288 287 287 287 287 286 286 286 286 285 285 285 285 285 285 285 284 284 285 285 286 286 286 286 286 285 286 288 289 287 286 287 288 289 290 290 291 292 293 295 296 297 298 296 297 300 300 300 301 301 301 302 306 309 312
312 316 322 317 308 305 306 305 305 305 301 299 298 297 298 295 294 296 292 294 296 291 290 293 291 292 294 294 292 289 287 287 287 288 288 288 288 288 288 288 288 288 287 287 287 286 286 286 286 286 285 285 285 285 284 284 284 284 284 284 284 284 284 284 284 283 284 284 284 285 286 286 285 286 286 287 287 288 288 290 291 293 294 295 296 295 295 297 297 297 297 298 298 299 301 305 308
312 315 319 314 307 306 305 303 305 304 301 298 296 297 300 295 292 293 289 290 293 290 289 289 288 288 289 289 289 288 288 287 287 288 288 288 288 288 288 288 288 288 288 287 287 286 286 286 286 285 285 285 284 284 284 284 284 283 283 283 283 283 283 283 283 282 283 283 283 283 284 284 284 285 285 285 286 286 287 288 290 291 292 292 293 293 294 295 295 294 294 295 296 296 298 301 304
318 317 314 310 305 304 305 305 304 302 300 299 297 296 299 297 293 291 291 290 290 290 289 288 287 286 286 287 287 287 287 287 287 288 288 288 288 288 288 288 288 288 288 287 287 287 286 286 286 285 285 285 284 284 284 284 284 283 283 283 283 283 282 282 282 282 282 282 282 282 283 283 283 284 285 285 285 285 286 287 288 289 289 290 291 291 292 293 294 292 291 292 293 295 296 298 300
317 316 311 308 306 302 302 304 303 300 300 300 298 295 297 299 294 292 295 292 290 293 290 287 288 287 286 286 287 287 287 287 288 288 289 288 288 288 288 288 288 287 287 287 287 287 286 286 286 285 285 285 284 284 284 284 284 283 283 283 282 282 282 282 282 282 282 282 282 282 282 282 283 283 284 285 285 285 285 286 286 287 287 287 288 289 289 291 293 293 292 290 291 292 294 296 297
309 313 310 305 306 302 299 302 302 300 300 300 298 295 296 296 293 293 295 292 291 296 292 289 289 287 287 286 286 286 287 288 288 288 289 288 288 287 287 287 287 287 287 287 287 287 286 286 285 285 285 284 284 284 284 284 284 283 283 283 282 282 282 282 282 282 282 282 282 282 282 282 282 282 283 284 284 285 285 285 285 285 285 285 286 287 288 288 290 293 293 292 291 290 290 292 295
305 311 310 303 302 302 299 300 301 298 298 299 297 296 296 294 294 293 294 294 294 294 291 292 292 288 287 286 285 286 287 288 288 288 288 288 288 287 287 287 287 287 287 287 287 287 286 285 285 285 285 284 284 284 284 284 283 283 283 283 282 282 282 282 282 282 282 282 282 281 281 281 282 282 282 283 284 284 284 284 284 284 284 284 284 284 285 286 286 288 290 291 290 289 288 289 291
304 303 304 302 301 301 298 298 299 297 296 297 297 297 296 293 294 293 294 299 300 295 291 292 290 287 287 286 285 286 286 287 287 288 288 287 287 287 287 287 287 287 286 286 287 287 286 285 285 285 285 285 284 284 284 284 283 283 283 283 282 282 282 282 282 282 282 282 282 281 281 281 281 282 282 282 283 283 283 282 282 282 282 282 282 282 283 284 284 284 286 287 287 288 288 288 288
305 301 299 300 300 299 298 297 297 297 301 302 298 296 295 293 294 292 292 299 299 293 290 289 287 286 286 285 285 285 285 287 287 288 288 287 287 287 288 287 287 287 286 287 287 287 286 285 285 285 285 285 285 285 284 284 284 283 283 283 283 282 282 282 282 282 282 282 282 282 281 281 281 281 282 282 282 283 282 282 281 281 281 281 281 281 282 282 282 283 283 284 285 286 287 288 288
306 303 299 298 298 298 298 298 297 299 304 301 297 295 295 296 295 291 291 294 293 288 287 287 287 286 286 285 284 285 285 287 288 288 288 288 288 288 288 287 287 287 286 287 287 286 286 285 285 285 285 285 284 284 284 284 284 283 283 283 283 282 282 282 282 282 282 282 282 282 281 281 281 281 281 281 282 282 282 281 281 281 281 281 281 281 281 281 281 281 282 283 284 285 286 287 287
305 301 299 298 297 297 296 298 298 299 299 295 295 296 295 295 293 291 292 292 289 287 286 286 285 285 285 284 284 285 285 287 288 288 288 288 288 287 287 287 286 286 286 287 287 286 286 285 285 285 285 284 284 284 284 283 283 283 283 282 282 282 282 282 282 282 282 282 282 282 281 281 281 281 281 281 281 281 281 281 281 280 280 280 280 280 280 280 280 281 281 282 283 284 285 286 286
304 301 299 298 297 295 296 298 297 296 295 294 298 297 293 292 291 292 292 290 288 286 286 285 284 286 286 284 284 284 285 286 287 287 288 288 287 287 287 287 286 286 287 287 286 286 286 285 285 285 284 284 284 283 283 283 283 283 282 282 281 281 281 281 281 282 282 282 282 281 281 281 281 281 281 281 281 281 281 281 280 280 280 280 280 280 280 280 280 280 280 281 281 282 283 284 285
303 302 300 300 298 296 297 299 296 295 294 294 299 297 293 291 292 296 293 289 288 287 287 285 286 287 287 285 283 284 285 286 287 287 287 287 287 287 287 287 287 287 287 286 286 286 285 285 284 284 284 283 283 282 282 282 282 282 281 281 281 281 281 281 281 281 281 281 281 281 281 281 281 281 281 281 281 281 281 280 280 280 280 280 279 279 279 279 280 280 280 280 280 281 282 282 283
300 301 301 301 301 296 296 299 296 296 296 293 296 295 291 290 294 298 293 288 288 287 287 286 286 287 287 285 283 284 285 286 287 286 287 287 287 287 287 287 287 287 286 286 285 285 284 284 283 283 282 281 281 281 281 281 281 281 281 280 281 281 280 281 281 281 281 281 281 281 281 281 281 281 281 281 281 281 281 280 280 279 279 279 279 279 279 279 279 279 279 279 280 280 280 281 281
302 304 303 302 305 300 297 299 296 296 296 293 294 295 294 293 295 298 291 288 287 286 287 286 286 286 286 286 284 283 284 286 286 285 287 287 288 287 287 287 286 286 286 285 284 284 283 283 282 281 281 281 280 280 280 280 280 280 280 280 280 280 280 280 280 280 280 280 280 280 281 281 281 281 281 281 281 281 280 280 279 279 279 279 278 278 278 278 278 278 279 279 279 279 279 279 280
303 305 305 306 309 304 297 298 298 296 296 293 294 300 302 298 297 295 289 287 287 286 287 286 286 285 285 285 285 284 284 285 285 286 288 287 288 287 286 286 286 285 284 283 283 282 282 281 281 280 280 280 280 280 280 280 280 279 280 279 280 280 279 280 280 280 280 280 280 280 280 281 281 280 280 281 280 280 280 279 279 279 278 278 278 278 278 278 278 278 278 278 278 278 278 278 278
305 303 306 306 304 305 301 299 300 297 296 294 295 300 302 300 301 294 287 287 286 287 287 285 285 285 285 285 285 285 284 284 286 287 288 287 287 286 285 286 285 284 283 282 282 282 281 281 280 280 280 280 279 279 279 279 279 279 279 279 279 279 279 279 279 279 279 279 279 279 280 280 281 280 280 280 280 280 279 279 279 278 278 278 278 278 278 278 278 278 277 277 277 277 278 278 278
308 303 310 308 302 306 305 299 300 298 295 294 295 300 300 299 301 292 286 286 286 287 287 286 286 285 285 285 284 285 284 284 285 286 287 287 286 285 285 284 283 283 282 282 282 281 281 280 280 279 279 279 278 278 278 278 278 278 278 278 278 278 278 279 279 279 279 279 279 279 279 279 280 279 279 279 279 279 279 279 278 278 278 278 278 277 277 277 277 277 277 277 277 277 277 277 277
311 304 306 308 303 305 303 299 299 298 297 295 296 299 299 299 297 290 286 286 286 287 287 286 286 285 285 285 284 285 284 285 284 285 287 286 285 285 284 283 282 282 282 281 281 280 280 280 280 279 279 278 278 278 278 278 278 278 277 277 277 277 278 278 278 278 278 278 278 278 278 278 278 278 278 278 278 278 278 278 278 277 277 277 277 277 277 277 277 277 277 277 277 276 277 276 276
313 308 305 306 303 302 302 301 298 298 299 297 297 298 297 298 297 291 287 286 286 286 287 286 286 285 285 285 284 284 285 285 284 285 286 286 285 284 283 282 282 282 281 281 280 280 280 279 279 279 278 278 278 278 278 277 277 277 277 277 276 276 277 277 277 277 277 277 277 277 277 277 277 277 277 277 277 277 277 277 277 277 277 277 277 277 277 277 277 277 277 277 276 276 276 276 276
306 305 305 305 302 301 301 301 299 298 299 298 297 298 298 297 297 293 288 286 287 286 287 287 286 285 285 285 285 284 284 285 285 285 285 285 284 283 282 282 281 281 280 280 280 279 279 279 278 278 278 278 277 277 277 277 277 276 276 276 276 276 276 276 276 276 276 276 276 276 276 276 276 277 276 276 276 276 276 276 276 276 276 276 276 276 276 276 276 276 276 276 276 276 276 276 276
303 302 302 303 302 301 300 300 300 298 298 298 298 299 300 298 297 296 290 286 286 286 286 286 286 285 285 285 285 284 285 284 284 285 285 284 283 282 282 281 281 280 280 280 280 279 279 279 278 278 277 277 277 277 276 276 276 276 275 275 275 275 275 275 275 275 275 275 275 275 275 275 275 276 276 276 276 276 275 275 276 276 276 276 276 276 276 276 275 275 275 276 276 276 276 276 276
300 301 301 302 301 300 298 299 300 298 298 301 300 300 299 297 296 296 292 287 286 286 286 286 286 286 285 285 285 285 285 284 284 285 285 284 282 282 281 281 280 280 280 279 279 279 279 278 278 278 277 277 276 276 276 275 275 274 274 274 273 273 273 274 274 274 274 274 274 274 274 274 274 274 275 275 275 275 275 275 275 275 275 275 275 275 275 275 275 275 275 275 275 275 276 276 276
300 301 300 301 301 300 298 297 298 298 298 300 300 298 297 296 296 296 292 288 287 287 287 287 287 286 286 285 285 285 285 285 284 284 284 283 282 281 281 280 280 280 280 279 279 279 278 278 278 277 277 276 276 275 275 274 274 273 273 272 272 272 272 272 273 273 273 273 273 273 273 273 274 274 274 274 274 274 274 274 274 274 274 274 274 274 274 274 275 275 275 275 275 275 275 275 276
302 300 300 302 301 301 301 299 297 297 297 299 300 297 296 296 295 295 293 290 289 288 287 287 287 287 286 286 286 285 286 286 285 284 283 282 281 281 281 280 280 280 279 279 278 278 278 277 277 276 276 275 275 274 274 274 273 272 272 272 271 271 271 272 272 272 272 272 272 273 273 273 273 273 273 273 273 273 273 273 273 273 273 273 273 274 274 274 274 274 274 274 274 275 275 275 276
303 300 302 303 299 299 301 300 298 297 296 298 299 297 296 297 297 296 293 290 290 289 289 288 287 287 287 286 286 286 286 286 286 284 282 282 281 280 280 280 280 279 279 279 278 278 277 277 276 276 275 275 274 274 273 273 272 272 272 271 271 271 271 271 272 272 272 272 272 272 272 272 272 272 272 272 272 272 272 272 272 272 273 273 273 273 273 273 273 273 274 274 274 274 275 275 276
303 301 301 302 299 297 299 298 297 298 297 296 297 300 301 300 300 301 294 289 290 290 290 289 288 287 287 287 286 286 286 286 287 286 283 281 281 281 281 280 279 279 279 278 278 277 277 276 276 275 275 274 274 273 273 272 272 271 271 271 271 271 271 271 271 271 271 271 272 272 271 271 271 271 271 271 271 271 272 272 272 272 272 272 272 272 272 272 273 273 273 273 273 274 274 275 275
304 304 302 300 298 296 297 297 296 299 301 296 295 304 310 302 300 302 296 290 292 290 289 290 289 288 287 287 287 286 286 286 286 286 283 281 281 281 281 280 279 279 278 278 278 277 277 276 275 275 274 274 273 273 272 272 271 271 270 271 270 270 270 271 271 271 271 271 271 271 271 271 270 271 271 271 271 271 271 271 271 271 271 271 272 272 272 272 272 273 273 273 273 273 274 274 274
303 305 301 299 297 296 297 296 297 302 302 297 295 303 309 302 299 300 295 292 293 291 290 290 289 289 288 287 287 287 286 286 285 284 281 280 281 280 280 280 279 279 278 278 277 277 276 276 275 274 274 273 273 272 272 271 271 270 270 270 270 270 270 270 271 271 271 270 270 270 270 270 270 270 270 270 270 270 271 271 271 271 271 271 271 271 271 272 272 272 272 272 273 273 273 273 273
304 303 298 298 297 296 297 296 297 300 299 297 296 297 302 302 300 296 292 294 295 293 293 291 289 289 288 287 287 287 287 286 286 284 281 279 280 280 280 280 279 278 278 278 277 277 276 275 274 274 273 273 272 272 271 271 270 270 270 270 270 270 270 270 270 270 270 270 270 269 269 269 270 270 270 270 270 270 270 270 270 270 270 270 270 271 271 271 271 271 271 272 272 273 273 273 273
304 302 296 297 297 296 297 296 299 298 298 303 299 294 300 304 301 295 291 294 298 298 299 297 293 290 289 288 287 287 287 286 285 284 282 279 279 280 280 280 279 278 278 278 277 277 275 275 274 273 273 273 272 272 271 271 270 270 270 269 269 269 270 270 270 269 269 269 269 269 269 269 270 270 270 270 270 270 270 270 270 270 270 270 270 271 271 271 270 270 271 271 271 271 272 272 272
301 300 297 298 297 297 298 298 301 301 303 308 300 295 301 305 303 299 295 297 301 301 302 301 296 292 289 289 288 287 287 286 284 282 281 280 281 281 280 279 279 278 278 277 277 276 275 274 274 273 273 273 272 271 271 270 270 269 269 269 269 269 269 269 269 269 269 269 269 269 269 269 270 270 270 269 269 269 269 269 269 270 270 270 270 270 270 270 270 270 270 270 270 270 271 271 271
300 299 299 300 297 295 298 300 302 305 310 310 298 295 301 304 305 302 299 304 306 302 300 299 296 294 292 289 288 288 287 286 285 282 280 280 281 281 280 279 278 278 278 277 276 275 275 274 273 273 273 272 272 271 271 270 270 269 269 269 269 269 269 268 268 269 269 269 269 269 269 269 269 269 269 269 269 269 269 269 269 269 269 270 270 270 270 270 270 270 270 270 270 270 270 270 271
299 299 299 302 302 298 300 307 307 308 314 308 296 295 299 301 306 305 302 303 302 300 299 299 298 298 296 292 289 288 287 286 285 283 281 279 279 279 279 278 278 278 277 276 276 275 274 274 273 273 273 272 272 271 270 270 269 269 268 268 268 268 268 268 268 268 268 268 268 269 269 269 269 269 269 269 269 269 269 269 269 269 269 269 269 269 269 269 270 270 270 270 270 270 270 270 270
301 301 301 309 314 308 309 314 310 310 311 301 294 296 299 299 302 302 301 301 300 299 298 297 297 297 296 295 291 288 287 286 284 283 282 280 278 278 278 278 278 277 277 276 276 275 274 274 273 273 273 272 271 271 270 269 269 269 268 268 268 268 268 268 268 268 268 268 268 269 269 269 269 269 269 269 269 269 269 269 269 269 269 269 269 269 269 269 269 269 270 270 270 270 270 270 270
300 299 301 310 312 310 313 312 307 309 308 298 292 296 300 301 303 303 302 302 301 299 296 295 295 294 294 294 291 289 287 286 284 283 283 281 279 278 278 278 278 277 277 276 276 275 274 274 273 273 272 272 271 271 270 269 269 268 268 268 268 267 268 268 268 268 268 268 269 269 269 268 268 268 268 268 268 269 269 269 269 269 269 269 269 269 269 269 269 269 269 269 269 270 270 270 270
298 295 298 306 307 307 312 311 309 308 305 298 294 297 305 307 308 307 304 301 299 296 295 293 292 290 290 290 289 288 287 285 284 283 282 280 279 279 279 278 278 277 277 276 276 275 274 274 273 273 272 272 271 270 270 269 269 268 268 268 267 267 268 268 268 268 268 268 268 268 268 268 268 268 268 268 268 268 268 269 269 269 269 269 269 269 269 269 269 269 269 269 269 269 270 270 270
296 294 297 304 304 304 306 305 303 300 301 302 299 300 304 303 303 301 297 297 296 294 293 293 294 291 288 288 289 288 286 285 283 283 282 280 279 279 279 278 278 277 277 276 276 275 274 274 273 273 272 272 271 270 270 269 269 268 268 268 267 267 268 268 268 268 268 268 268 268 268 268 268 268 268 268 268 268 268 268 269 269 269 269 269 269 269 269 269 269 269 269 269 269 269 270 270
297 297 300 298 295 299 303 300 296 294 300 306 302 302 301 299 304 302 296 298 299 297 296 294 294 291 289 289 289 287 287 285 284 283 282 280 279 279 278 278 278 277 277 276 276 275 275 274 273 273 272 272 271 270 270 269 269 268 268 267 267 267 267 267 267 267 267 267 267 267 267 267 267 268 268 268 268 268 268 268 268 268 268 268 268 268 268 268 269 269 269 269 269 269 269 269 269
298 299 299 294 293 298 301 300 301 300 304 306 303 304 301 298 306 306 301 302 303 303 301 295 292 290 289 289 288 288 287 285 284 283 281 280 279 279 278 278 278 277 277 277 276 276 275 274 273 273 272 272 271 271 270 269 269 268 268 267 267 267 267 267 267 267 267 267 267 267 267 267 267 267 267 268 268 268 268 268 268 268 268 268 268 268 268 268 268 269 269 269 269 269 269 269 269
296 297 296 295 299 305 301 300 305 305 304 305 304 303 300 300 307 309 305 305 304 303 301 297 296 294 291 290 289 288 287 285 284 283 281 280 279 278 278 277 277 277 277 277 276 275 275 274 273 273 272 272 271 271 270 269 268 268 268 267 267 267 267 267 267 267 267 267 267 267 267 267 267 267 267 267 268 268 268 268 268 268 268 268 268 268 268 268 268 269 269 269 269 269 269 269 269
294 295 294 296 300 304 301 298 301 304 304 305 304 304 304 304 309 311 305 303 302 301 300 299 298 296 294 292 290 289 288 286 284 283 282 280 279 278 278 278 278 277 277 276 276 275 274 274 273 272 272 271 271 270 269 269 268 268 267 267 267 267 267 267 267 267 267 267 267 267 267 267 267 267 267 267 268 267 267 267 267 267 267 267 267 268 268 268 269 269 269 269 269 269 269 269 269
297 297 297 297 296 297 298 296 296 301 304 304 303 305 305 302 304 306 303 302 301 300 300 299 298 296 295 293 291 289 288 286 285 283 282 280 279 278 278 278 278 277 277 276 275 275 274 273 273 272 272 271 270 270 269 269 268 268 267 267 267 267 267 267 267 267 267 266 266 266 266 266 266 267 267 267 267 267 267 267 267 267 267 267 267 267 268 268 268 269 269 269 269 269 269 269 269
300 302 302 302 299 299 301 300 296 295 299 301 301 303 303 300 302 303 302 302 302 300 299 298 297 296 294 293 291 289 288 287 286 284 283 281 279 278 278 277 277 276 276 275 275 274 273 273 273 272 271 271 270 270 269 269 268 268 267 267 267 267 266 266 266 266 266 266 266 266 266 266 266 266 267 267 267 267 267 267 266 266 266 266 267 267 268 268 268 269 269 269 269 269 269 269 269
Wind_Speed
11 11 10 11 11 7 5 5 4 4 4 5 3 2 4 5 4 4 5 3 3 3 3 5 7 6 7 8 10 8 4 2 1 0 1 2 6 14 14 15 17 19 21 21 23 25 28 31 31 31 31 31 31 31 32 32 33 34 34 34 35 37 38 37 36 34 34 37 36 27 19 13 9 9 9 10 10 8 8 8 8 9 9 10 12 11 11 11 12 12 13 14 13 11 9 11 12
12 10 8 8 8 4 1 3 5 3 5 5 3 2 3 5 5 4 5 3 5 4 3 7 11 11 10 10 9 7 6 4 3 3 5 7 6 13 14 13 17 18 20 20 21 23 27 29 29 30 30 30 31 31 31 30 31 31 33 34 34 35 36 36 36 36 35 37 39 38 33 26 18 10 9 9 8 9 8 7 8 9 10 10 11 11 13 13 12 12 12 13 13 12 10 10 11
12 10 9 7 5 5 2 4 4 2 5 5 2 3 2 3 3 3 4 4 7 8 5 6 8 6 5 7 5 4 3 4 6 3 5 11 7 11 13 12 15 16 18 19 20 21 24 28 28 29 29 30 31 31 31 30 30 30 31 32 34 34 35 35 35 36 36 37 38 38 37 34 31 25 22 21 14 8 6 7 9 9 10 10 11 12 14 14 13 13 13 13 13 14 13 11 10
11 10 11 5 4 5 3 4 3 4 4 3 1 4 1 4 3 3 5 5 2 4 2 4 5 4 4 7 4 3 3 2 7 4 3 9 8 8 10 11 13 14 17 19 20 20 22 26 27 28 29 29 30 31 31 31 31 31 30 30 31 32 34 34 34 35 35 36 36 35 36 36 36 33 28 28 26 21 15 9 9 9 10 10 11 12 13 14 14 14 14 14 14 14 14 14 12
8 9 11 4 3 3 3 4 2 4 3 3 2 3 1 4 5 5 4 5 4 3 1 3 2 2 4 5 1 2 1 1 6 7 5 5 6 6 8 10 12 15 18 19 20 19 21 25 26 27 28 29 29 30 30 30 30 31 31 30 29 29 31 32 33 33 34 34 33 34 35 37 37 35 32 31 31 29 27 22 19 13 7 8 10 11 13 14 15 15 15 15 15 15 15 15 14
4 8 16 12 4 2 4 4 4 4 2 3 4 2 1 2 4 6 3 4 7 7 4 3 5 4 4 3 3 2 2 3 4 5 6 5 5 4 6 9 12 15 16 17 18 19 20 23 25 26 27 28 28 29 29 30 30 30 31 30 29 28 28 30 31 31 33 33 33 34 35 36 37 36 35 35 33 31 30 27 26 23 13 9 7 8 11 13 14 15 15 15 15 16 16 15 15
4 4 9 10 4 3 5 4 4 3 1 2 4 3 1 1 3 3 3 3 6 7 5 4 7 8 3 1 3 5 2 9 7 6 7 7 5 3 6 9 11 13 15 16 17 18 18 20 23 25 26 27 28 28 29 29 30 29 30 30 30 29 28 28 29 30 32 32 33 34 34 35 36 36 36 35 35 33 31 29 28 28 26 20 13 7 6 8 13 14 17 16 15 16 16 16 16
9 4 2 5 4 4 5 4 3 2 2 3 2 2 1 1 2 3 5 3 2 4 4 2 4 6 2 1 2 2 8 12 11 11 10 7 4 5 7 9 11 13 15 16 17 18 18 19 22 23 25 26 27 28 28 28 29 29 29 29 30 29 29 28 29 29 30 32 32 32 32 33 35 36 36 35 35 35 33 31 30 29 28 26 22 17 14 7 5 8 13 15 16 16 15 17 17
10 6 2 5 5 4 4 3 3 1 2 4 2 3 2 3 3 4 5 4 2 3 4 4 2 5 3 5 3 2 8 13 14 13 9 7 6 7 8 10 12 13 15 16 18 19 20 21 22 23 25 26 26 27 28 28 28 29 28 28 29 29 29 29 28 29 29 30 31 31 32 33 34 34 35 35 35 35 33 32 31 29 29 27 26 24 22 18 11 7 5 9 13 16 15 16 18
7 5 3 4 4 5 4 2 1 2 1 2 3 3 2 3 4 5 5 5 4 3 3 1 5 7 6 4 3 3 8 13 13 12 10 8 8 8 9 11 12 13 15 16 18 19 21 21 22 23 25 25 26 27 28 28 27 28 28 28 28 28 29 28 28 28 28 28 29 30 32 34 35 34 33 33 34 34 33 32 32 30 30 29 28 27 25 22 18 15 7 5 7 11 15 15 17
4 5 3 4 4 4 3 3 3 3 2 2 3 4 2 1 4 5 4 5 3 3 2 5 7 7 6 3 2 4 10 10 10 11 10 8 7 7 9 11 11 13 14 16 18 19 20 21 23 23 25 25 26 27 28 28 27 27 27 28 27 27 27 28 27 27 27 27 27 28 30 32 34 33 32 31 32 33 33 33 33 31 30 30 29 29 27 25 24 21 14 14 16 7 7 10 14
4 3 4 5 3 3 4 5 4 3 1 2 2 3 2 2 4 4 3 4 2 3 3 1 6 5 5 1 1 7 10 8 9 10 8 6 6 6 8 9 10 12 14 16 17 19 20 22 23 24 25 25 26 26 27 28 27 26 26 27 26 26 25 26 27 26 26 26 26 26 27 28 29 30 30 30 30 31 33 33 33 32 30 30 29 28 28 27 26 24 20 18 19 13 7 5 7
4 2 5 4 2 4 5 5 4 3 3 2 1 3 3 4 3 4 4 4 2 3 3 1 7 5 4 1 2 7 8 9 11 10 7 5 5 5 6 8 10 12 14 16 17 19 20 22 23 25 26 26 27 27 27 28 27 25 26 26 25 25 25 24 25 25 25 24 25 25 25 25 26 26 27 28 28 30 31 32 32 32 31 30 30 29 28 28 27 26 25 21 19 15 9 8 3
3 3 5 3 1 4 5 3 3 3 1 4 1 2 3 2 1 2 4 5 2 1 2 1 7 4 3 2 2 4 7 12 12 9 7 5 4 4 5 7 10 11 13 15 17 19 20 23 25 26 28 29 29 29 28 28 27 26 26 26 25 25 25 24 24 24 24 23 23 23 23 24 25 25 25 25 25 27 29 30 31 31 30 30 30 29 29 29 27 26 26 24 21 18 12 9 4
4 3 5 4 2 2 3 2 3 4 3 4 2 0 3 2 2 3 2 3 1 1 2 2 3 1 4 7 4 7 13 16 12 9 7 4 3 3 5 6 9 11 13 14 17 19 21 24 26 28 29 30 30 30 29 28 27 26 26 27 26 25 25 24 24 23 22 22 22 22 21 23 25 24 24 24 24 25 25 27 28 29 29 29 29 28 28 29 28 26 25 25 23 21 17 13 7
4 4 5 4 2 2 3 2 3 3 2 4 4 3 5 4 4 2 3 1 2 4 3 1 2 2 3 5 6 16 20 16 13 10 6 4 1 2 3 6 8 10 12 14 17 20 22 24 26 28 29 30 30 30 29 28 26 25 26 26 26 27 26 26 26 24 22 21 22 22 21 22 24 24 23 23 23 24 24 24 25 27 27 27 27 26 26 28 29 27 25 24 24 23 19 15 11
4 5 5 3 2 3 4 4 4 3 2 5 5 1 5 2 3 2 4 7 4 4 4 2 4 4 2 2 10 22 21 15 14 10 6 3 1 2 4 7 8 10 12 14 17 20 22 24 25 27 27 28 29 29 28 27 25 25 26 26 26 27 27 27 27 27 25 24 23 23 23 23 23 23 22 22 22 23 22 22 22 23 25 25 25 24 23 24 27 27 25 24 23 24 22 17 15
5 4 4 3 2 2 4 6 5 4 4 6 7 3 7 4 2 2 5 8 4 4 5 4 5 7 6 9 15 20 18 16 13 9 6 2 2 3 5 7 9 10 11 13 16 19 21 23 24 25 26 26 27 28 27 26 24 24 25 26 26 27 27 28 28 29 28 27 26 24 24 23 23 22 21 21 21 21 21 21 20 20 22 23 23 22 21 21 22 24 25 25 23 23 23 20 17
4 3 4 2 4 2 3 6 5 4 6 6 5 5 5 6 6 3 3 1 1 4 3 4 5 5 5 9 13 16 17 15 11 9 5 2 2 3 5 6 8 9 11 13 15 18 20 21 22 23 24 25 26 26 26 24 23 23 24 25 25 26 26 27 28 29 29 29 28 26 25 24 23 22 20 19 19 20 20 20 19 19 20 21 21 19 20 20 20 20 22 24 24 24 24 22 19
2 4 5 2 5 1 1 3 5 6 9 8 5 5 3 5 6 3 5 3 1 2 3 1 1 4 4 7 11 14 14 13 10 7 4 3 3 4 4 6 7 8 10 12 14 17 18 19 20 21 21 22 23 24 24 23 21 21 22 23 24 24 25 26 27 28 29 29 28 28 27 25 24 23 21 20 19 19 19 20 20 20 20 21 21 19 19 21 20 19 20 21 23 25 26 24 21
3 2 3 4 4 3 2 1 7 6 8 9 7 5 4 5 3 3 8 4 3 6 7 8 8 11 8 8 12 13 13 12 9 6 5 5 5 6 6 7 8 9 10 11 14 17 17 18 19 19 19 19 20 20 21 21 20 19 20 21 22 22 24 25 25 27 28 28 28 28 26 26 25 23 22 21 20 20 20 20 20 21 21 21 23 22 21 22 23 21 20 20 22 24 26 26 23
4 2 3 5 4 4 2 2 7 6 6 7 7 6 5 4 1 5 10 6 5 6 8 10 9 13 13 12 14 13 12 12 9 8 7 8 8 9 9 9 10 10 10 12 15 17 18 18 18 19 19 18 18 18 18 18 18 18 18 19 20 21 22 24 25 25 27 27 28 28 26 25 26 23 21 21 21 21 21 21 21 21 22 22 23 24 23 22 23 24 22 21 22 22 22 24 24
5 2 2 2 3 5 3 3 5 4 7 7 6 4 4 5 2 5 8 6 6 5 6 10 10 16 17 15 14 12 12 13 11 10 9 10 11 11 11 12 11 11 12 14 16 18 18 19 20 20 20 20 18 18 18 18 18 18 19 19 20 21 22 24 24 25 25 26 27 27 25 24 25 23 20 21 21 22 22 23 24 23 23 23 23 23 24 24 23 24 24 22 22 21 21 21 23
6 2 2 3 3 4 2 4 4 3 6 5 5 5 4 6 4 3 6 7 6 6 4 10 13 16 16 13 13 12 13 14 12 11 11 12 13 13 13 13 12 12 14 16 16 17 18 20 21 21 21 21 20 19 19 19 19 19 20 20 20 22 22 22 23 23 23 24 25 26 25 23 23 22 20 20 21 22 24 25 25 25 23 22 22 22 23 24 24 24 24 24 22 22 21 21 21
5 3 1 2 4 3 4 6 5 6 5 3 6 3 2 4 4 3 6 7 4 3 5 11 13 13 11 10 12 12 13 13 12 12 12 13 14 15 15 16 14 13 16 17 17 18 19 20 22 23 22 21 21 20 19 18 19 19 18 18 19 20 21 22 22 20 21 23 25 25 24 23 22 21 21 20 21 23 24 25 25 24 22 21 21 22 23 23 24 24 23 24 24 23 22 22 22
2 4 2 3 3 2 3 5 5 5 3 3 6 2 4 2 1 2 7 6 4 4 6 8 10 9 8 8 11 13 13 14 14 14 14 15 15 16 18 18 16 16 18 17 17 20 21 21 23 23 21 21 21 19 18 16 16 16 15 15 16 18 19 21 21 19 19 20 23 25 24 23 20 20 21 21 21 22 23 23 23 23 21 20 20 21 22 22 23 23 23 23 24 23 23 23 22
3 6 5 5 3 0 3 4 2 2 1 3 4 2 4 2 2 3 6 6 5 5 6 6 7 8 8 7 11 14 14 16 17 14 14 16 16 18 20 20 19 18 18 17 18 21 22 23 23 20 18 17 16 14 14 13 13 13 13 14 15 16 18 19 20 20 20 20 21 22 22 22 20 19 20 21 22 22 22 21 21 22 21 19 19 20 20 20 20 21 22 23 23 24 23 23 23
5 8 6 5 3 1 5 4 2 1 1 3 5 3 3 3 2 5 7 7 6 7 8 7 7 8 8 7 10 12 15 19 18 14 15 18 19 20 21 20 19 18 18 17 18 20 21 21 18 14 12 11 11 11 11 11 12 13 13 14 15 16 17 18 19 20 21 21 20 21 20 19 19 20 20 21 23 23 21 19 19 19 19 19 19 19 18 19 19 19 21 22 22 23 24 24 24
5 6 5 3 6 3 1 2 3 1 1 4 6 2 3 4 7 7 5 8 7 7 8 8 8 8 7 7 8 11 16 18 16 16 20 22 22 22 22 20 18 17 17 16 17 18 18 15 11 10 10 10 11 12 12 13 13 14 15 16 17 17 17 18 18 18 18 19 19 19 20 18 17 19 20 21 22 22 19 18 18 17 16 17 17 18 19 20 20 20 22 23 23 24 25 26 27
2 4 4 2 7 1 3 0 3 2 2 6 3 3 5 7 10 7 4 9 8 7 9 8 8 7 6 7 6 9 15 17 17 21 24 24 24 23 21 20 17 15 14 14 15 16 14 11 10 11 11 12 13 13 14 14 14 15 16 16 17 17 18 18 18 17 17 17 17 17 17 19 17 16 19 20 20 19 17 17 16 15 14 15 16 17 19 20 21 22 23 24 25 26 27 29 29
1 2 2 2 3 3 4 4 1 1 2 5 2 4 6 7 10 6 6 10 10 10 10 9 8 7 6 7 6 8 13 19 21 24 26 26 25 22 19 17 13 11 12 13 14 13 12 11 11 12 13 13 13 13 13 14 14 15 16 16 17 17 17 18 18 17 16 16 15 14 14 14 13 11 13 15 15 15 15 15 14 12 12 13 14 16 18 19 20 22 23 24 25 25 28 30 31
3 2 3 3 0 4 7 4 3 3 1 3 3 3 6 7 8 5 7 8 10 11 10 9 9 9 8 7 7 7 11 19 22 24 28 27 24 20 16 12 9 10 12 13 12 11 12 12 12 12 13 13 12 12 13 14 15 15 16 16 16 16 16 16 17 17 16 15 14 13 12 10 5 4 6 8 10 11 11 10 10 10 11 12 13 15 17 18 20 21 22 23 24 25 27 29 30
3 2 2 4 2 4 6 2 1 1 1 1 3 4 6 6 5 3 7 8 10 10 10 10 9 10 9 7 7 7 9 13 17 23 29 27 24 19 13 9 9 10 11 11 11 12 12 13 13 13 13 13 12 12 13 15 16 16 17 17 16 16 15 16 16 16 16 16 14 12 12 11 8 5 5 6 6 6 7 6 7 9 11 12 13 15 15 16 19 21 22 22 23 24 26 27 29
3 3 1 3 3 3 5 3 2 2 1 2 4 5 9 9 5 4 8 9 9 10 11 11 9 9 8 7 8 7 8 8 12 23 26 21 16 12 9 8 9 10 11 11 11 12 13 13 13 13 13 13 13 14 15 16 16 17 17 17 17 16 16 15 16 16 16 15 13 12 13 13 11 9 8 7 7 6 6 6 7 10 12 13 14 15 15 16 18 20 21 22 23 24 25 26 27
3 3 2 3 3 3 5 5 3 3 2 4 5 7 12 12 6 5 8 9 10 13 11 9 9 9 8 8 8 9 9 8 15 24 21 13 11 10 9 9 9 10 10 10 11 12 13 13 13 14 14 15 15 15 16 18 19 18 18 17 17 17 16 15 15 16 16 15 15 14 15 16 15 13 11 10 9 9 9 9 10 12 14 14 15 16 16 17 18 19 20 22 23 23 24 24 25
5 4 3 4 5 4 6 7 3 2 4 7 7 7 10 11 8 6 8 9 10 12 9 8 9 8 8 8 8 9 9 11 19 23 17 13 13 10 9 9 10 11 11 11 13 13 13 13 14 15 16 16 16 16 18 19 20 19 19 18 18 17 16 16 16 17 16 16 16 16 16 17 17 16 15 14 13 12 12 12 13 13 14 15 16 16 16 17 18 18 19 21 22 24 24 23 23
4 2 2 5 5 6 7 6 5 2 3 7 6 6 11 12 12 8 6 8 10 11 10 10 10 8 9 9 10 11 10 13 17 17 15 15 13 10 10 10 11 11 12 13 13 13 14 14 16 16 17 17 16 17 18 18 18 17 17 17 17 17 16 16 17 17 17 17 16 16 15 15 16 16 15 15 15 14 13 13 14 14 14 15 15 15 16 17 17 18 19 19 20 22 21 20 23
2 2 2 4 4 7 7 4 5 2 3 6 6 7 12 12 12 8 5 8 11 13 13 13 13 11 9 10 12 11 9 10 11 12 16 17 13 12 12 11 12 12 13 13 13 14 15 15 16 16 16 16 16 16 16 17 16 15 16 17 17 18 17 16 16 16 16 16 16 15 13 12 14 14 14 14 14 14 14 14 14 14 14 15 15 15 16 17 17 18 18 18 18 17 17 19 22
2 2 1 3 3 5 7 3 2 1 1 6 8 9 12 12 11 7 7 9 10 10 13 13 12 11 11 11 12 10 9 8 8 11 17 19 16 14 13 13 13 13 13 14 14 14 15 15 16 16 16 16 16 16 15 16 16 16 16 17 18 18 17 15 14 14 14 14 13 11 10 11 12 13 13 13 13 13 13 13 13 14 14 15 15 17 17 17 17 17 16 16 16 16 16 16 15
1 1 1 4 3 1 4 3 2 3 3 5 7 8 10 8 6 5 5 7 6 5 8 9 9 11 12 11 9 10 12 11 9 9 14 18 17 15 15 14 13 13 14 14 15 15 15 15 15 16 16 16 16 15 15 16 16 16 16 17 17 16 15 13 11 12 12 12 11 9 10 11 12 12 13 13 12 11 11 12 12 13 14 14 15 16 16 16 16 16 16 14 14 14 13 11 9
3 4 4 4 4 2 5 5 6 6 2 2 6 7 6 4 4 6 3 2 6 5 6 9 9 10 10 8 9 11 11 11 11 10 11 16 17 16 16 15 14 15 16 16 16 15 15 15 15 16 15 15 15 15 15 16 15 16 16 17 15 13 12 11 9 11 11 10 9 9 11 12 13 14 13 12 10 11 11 11 11 12 12 12 13 13 13 14 14 13 13 12 11 11 11 10 7
4 4 7 5 5 5 6 6 6 5 3 2 4 5 5 4 3 7 4 2 6 4 6 11 10 8 8 9 11 11 10 10 10 10 12 14 16 16 16 15 15 17 18 18 17 16 16 16 16 15 15 14 14 14 15 15 14 15 15 14 13 12 11 9 9 11 11 10 10 11 14 15 14 12 10 9 9 10 10 10 10 10 10 10 11 11 11 11 11 9 9 10 12 11 11 11 10
5 3 6 4 3 5 6 4 2 2 3 3 3 2 4 5 4 6 4 5 8 5 7 12 10 8 8 10 11 10 10 10 9 10 12 14 15 16 17 18 18 19 19 18 16 16 17 17 16 15 14 14 13 14 14 14 14 15 14 13 12 12 11 11 10 11 11 12 13 15 16 14 11 9 7 8 9 9 10 10 10 11 10 11 11 10 10 10 9 9 10 11 11 9 9 10 11
4 3 2 3 7 6 4 2 2 2 3 4 3 3 2 5 5 4 4 5 9 8 10 12 10 11 11 11 12 11 11 10 9 9 10 14 17 18 20 20 19 19 18 17 17 18 18 17 16 15 14 14 14 14 14 14 14 14 13 13 13 13 12 12 11 11 12 14 15 16 15 12 9 7 7 8 9 10 11 11 12 12 11 12 12 10 10 10 11 12 12 10 8 7 8 8 9
6 4 2 5 5 3 1 4 3 1 2 4 4 2 1 6 6 2 2 4 8 9 11 11 11 12 12 12 13 13 12 10 9 10 11 15 19 21 21 21 19 18 17 18 19 18 18 17 17 16 15 15 14 14 14 14 14 13 13 14 14 13 12 11 12 13 14 15 16 15 13 12 9 7 8 10 11 12 12 11 11 11 11 12 11 10 10 11 13 12 11 10 10 10 10 10 11
6 6 5 2 2 2 3 4 2 2 3 3 5 0 1 5 6 2 1 2 6 8 9 9 10 10 11 11 12 12 11 9 9 11 15 18 20 21 20 19 18 17 17 18 19 19 19 18 17 17 17 16 15 15 14 14 14 14 14 14 14 13 12 13 14 15 15 14 15 14 13 11 9 9 11 12 12 12 11 11 11 11 12 11 10 11 12 13 13 12 12 13 13 14 15 14 14
5 6 5 3 4 3 3 2 3 4 3 5 5 1 2 3 6 4 3 4 5 6 7 8 8 9 10 10 11 11 10 9 9 10 14 18 20 19 18 18 19 18 18 19 20 20 20 19 19 18 18 17 16 15 15 14 14 14 14 13 13 14 14 15 14 14 13 13 14 13 12 11 10 11 12 12 11 11 11 12 12 12 12 12 12 13 14 14 14 14 14 15 15 15 16 15 15
4 3 3 3 3 3 3 4 4 3 4 5 4 2 2 2 6 5 6 6 6 6 7 9 9 9 10 9 9 10 9 9 8 8 11 14 16 16 18 20 19 18 19 21 22 22 21 21 20 19 19 18 17 16 15 15 14 14 14 13 14 15 14 14 13 13 13 13 14 14 12 12 12 12 12 12 12 12 12 13 13 13 13 13 14 14 15 15 15 16 16 16 16 16 16 15 15
5 3 4 4 3 4 4 3 2 1 5 3 3 2 0 5 9 9 10 10 8 9 9 10 10 10 9 9 9 8 7 8 8 8 8 10 12 16 19 21 21 21 22 24 25 24 23 22 21 21 20 19 17 16 15 15 15 15 15 14 14 14 13 13 13 13 14 14 14 14 13 13 13 13 12 12 13 13 14 14 14 15 15 15 16 16 16 16 16 16 17 17 17 17 17 16 16
4 2 3 3 3 4 3 4 2 3 5 2 4 2 3 5 7 9 12 11 8 7 8 9 10 10 10 8 7 7 7 8 8 9 8 8 13 17 19 21 22 23 25 27 27 26 25 24 23 22 21 19 18 17 16 16 15 15 15 15 15 13 13 13 14 14 14 14 14 14 14 15 15 14 14 14 15 15 15 15 15 16 16 17 17 17 17 17 17 17 17 18 18 18 18 18 18
1 2 3 2 3 2 2 3 1 4 6 3 2 2 3 3 5 7 8 8 6 5 6 7 8 10 8 7 7 7 8 9 8 9 9 11 16 19 20 22 23 25 27 27 27 27 26 25 24 23 22 20 18 17 17 17 16 15 15 16 15 14 14 13 13 13 13 14 14 16 17 17 16 16 16 16 15 15 15 16 17 17 17 17 18 18 18 18 18 18 18 18 18 18 18 19 19
1 2 3 1 3 3 2 3 3 1 4 4 3 3 5 4 9 8 3 5 7 6 6 6 9 9 6 6 9 9 9 9 8 9 10 13 18 20 21 23 24 26 27 27 28 28 28 27 26 24 23 21 19 18 18 17 17 16 16 16 16 15 14 13 14 14 14 15 15 17 18 17 17 17 17 16 15 15 16 17 17 17 17 18 19 19 19 20 20 20 20 19 19 18 18 19 20
0 1 1 2 3 5 3 1 1 4 1 4 2 4 4 3 9 8 5 6 8 6 6 7 10 9 6 8 11 9 10 10 9 10 10 13 17 20 23 24 25 27 28 28 30 30 29 28 26 25 24 21 20 19 18 17 17 17 17 17 16 15 15 15 15 15 15 16 16 17 17 17 17 17 17 16 16 16 16 15 16 17 18 19 20 20 20 21 21 21 21 21 21 20 20 20 21
2 1 3 2 2 3 3 0 3 4 1 4 3 6 7 3 4 6 6 6 9 8 8 8 9 9 8 11 12 11 12 11 10 11 11 14 17 21 24 26 28 29 29 30 31 30 29 28 27 26 24 22 21 20 19 18 18 18 18 17 16 16 16 16 16 16 16 16 16 16 16 17 17 17 17 17 16 16 16 16 18 19 20 20 20 21 21 21 21 21 22 22 22 21 21 21 21
2 2 2 2 1 1 1 0 1 2 3 5 5 7 6 3 4 6 6 7 9 9 8 7 9 10 9 11 12 13 12 10 10 11 10 12 17 21 24 26 28 29 30 31 30 29 29 28 27 26 25 23 21 19 19 19 19 18 19 18 18 17 17 16 16 16 16 17 17 16 17 18 17 17 16 16 16 16 17 18 19 19 20 20 20 21 20 20 20 20 21 21 21 21 21 22 22
2 1 1 2 2 3 1 1 2 1 2 3 4 5 5 6 6 5 8 10 9 9 8 8 10 10 10 10 11 11 11 10 10 11 10 12 17 23 26 27 28 29 31 31 30 30 30 29 28 27 25 23 21 21 20 20 20 19 19 18 18 17 17 16 16 16 17 18 18 17 17 17 17 17 17 17 18 18 19 19 19 19 20 21 21 20 19 18 17 18 19 19 20 20 21 22 22
2 0 1 1 1 2 0 0 2 3 2 2 2 4 7 7 4 6 11 11 9 9 9 9 10 10 10 11 11 10 10 10 10 10 10 11 17 23 25 27 28 28 29 30 30 31 30 30 29 27 26 24 23 23 22 21 20 19 18 18 18 18 17 17 17 17 18 19 19 18 18 18 18 18 18 18 19 19 20 20 20 20 20 20 20 19 17 16 16 17 18 18 19 20 21 22 22
5 4 4 3 3 3 1 2 1 1 3 4 2 4 10 8 3 6 9 8 8 9 8 10 11 12 12 12 11 11 10 11 11 11 10 10 15 20 23 25 25 26 28 29 30 30 30 31 30 28 27 26 25 24 23 22 20 19 20 19 19 18 18 17 18 18 19 20 20 20 20 19 19 18 18 19 20 20 20 20 21 21 21 20 19 18 16 15 16 17 18 18 19 20 21 23 22
Wind_Direction
351 349 346 343 338 342 11 39 63 6 61 76 10 34 0 350 6 3 354 354 80 46 4 38 39 44 79 101 119 109 58 69 288 149 88 336 35 30 26 19 12 12 12 13 14 17 22 17 14 15 12 10 8 7 7 7 7 6 6 5 5 6 7 8 11 11 8 9 10 6 2 354 316 287 290 275 262 261 241 246 264 260 262 259 253 246 243 237 232 231 223 216 217 223 227 228 227
359 354 350 348 353 20 22 49 83 7 55 71 353 26 333 342 28 11 329 356 99 131 127 75 67 64 84 109 117 94 46 17 356 107 59 13 35 34 27 16 12 11 10 10 10 13 20 17 13 16 16 14 12 11 9 8 8 6 7 8 6 6 5 4 7 9 8 8 9 8 8 9 12 29 20 347 295 280 258 246 270 261 257 262 257 252 248 241 235 235 229 224 223 221 221 225 226
0 354 352 1 14 45 67 40 86 84 72 90 357 318 340 42 54 31 4 54 124 147 133 78 73 53 68 85 54 53 67 13 10 101 54 28 43 30 25 16 14 13 10 11 11 13 21 17 12 16 17 17 16 14 13 11 10 8 8 8 8 8 6 3 3 5 7 8 8 4 1 1 12 32 31 21 12 341 303 278 286 273 258 257 260 264 253 241 239 239 237 233 231 229 225 222 223
358 353 349 0 39 36 56 48 98 108 95 129 73 307 3 109 127 82 35 45 128 163 139 65 59 357 52 78 40 49 87 54 27 76 80 35 53 36 24 18 13 12 12 15 14 15 22 19 14 18 18 18 18 16 16 15 13 10 9 7 7 9 8 5 3 4 6 8 6 1 359 358 8 22 20 17 22 24 19 358 334 299 268 260 262 266 256 243 243 241 241 241 238 235 231 226 225
1 17 21 52 79 46 82 69 81 87 123 167 125 278 283 156 156 117 80 61 37 14 81 95 92 306 62 72 35 101 95 89 59 80 106 66 67 46 21 15 8 9 12 15 14 14 21 21 17 18 18 19 18 17 17 16 15 13 13 9 7 7 7 7 5 6 7 8 6 359 358 359 4 14 14 12 16 21 21 22 16 350 292 277 276 264 256 246 247 244 242 244 243 242 237 231 227
31 60 53 69 86 86 80 67 72 69 147 164 128 230 266 148 156 133 105 72 48 37 54 79 120 128 82 65 58 49 243 149 108 103 120 102 81 49 15 9 1 7 14 16 15 14 19 23 20 19 19 19 18 17 17 17 16 14 14 12 9 6 4 4 5 5 5 6 6 3 1 360 2 6 11 11 11 13 14 19 16 14 19 354 316 278 266 251 249 248 246 244 242 245 242 236 230
60 86 49 63 55 51 76 84 94 77 46 104 131 198 242 92 158 119 17 21 37 30 44 80 122 108 85 144 66 14 108 142 131 129 135 119 96 43 15 5 0 11 18 17 18 17 18 22 21 21 19 19 18 17 16 16 16 14 13 13 12 9 5 2 2 3 2 4 3 3 2 1 2 4 8 9 7 6 9 13 10 14 21 20 22 1 314 265 258 258 254 249 243 244 243 241 233
62 73 21 69 55 36 80 86 78 121 32 36 106 124 43 35 144 79 29 26 37 5 26 147 136 87 49 73 102 36 96 126 123 120 127 116 91 47 26 12 12 20 24 21 22 20 19 22 22 21 19 18 17 16 15 14 14 13 12 11 11 11 9 5 3 2 1 1 1 359 359 0 2 4 6 6 4 2 3 8 9 11 13 17 24 22 20 3 300 278 264 256 249 245 245 242 236
59 56 60 71 78 62 76 70 46 91 20 13 50 53 48 45 65 86 71 63 97 19 355 237 184 92 110 67 114 170 102 117 120 116 111 94 73 52 35 28 30 30 29 26 25 23 22 22 21 20 18 16 14 13 12 11 10 10 9 8 8 9 9 9 7 4 1 -0 359 357 357 358 360 3 5 5 3 0 359 3 7 9 8 11 15 17 19 19 21 13 301 265 259 252 251 243 236
44 33 93 72 82 88 78 85 68 94 78 59 46 19 46 43 72 88 86 100 120 71 25 21 77 111 130 102 138 179 133 127 120 109 97 89 70 53 43 41 39 34 31 28 26 23 22 20 18 17 14 11 9 8 7 8 7 6 6 5 5 5 6 7 7 7 4 2 0 358 357 356 356 359 1 2 2 -0 359 1 4 6 6 7 8 11 14 16 20 21 23 4 319 267 258 254 242
40 5 88 81 78 107 134 141 125 130 151 82 24 357 60 50 88 72 71 119 114 119 146 53 84 128 112 120 188 138 145 134 118 110 98 92 73 56 49 46 40 34 32 27 24 20 19 16 13 12 10 7 4 3 2 2 4 3 2 3 2 2 3 3 5 6 5 3 3 1 359 357 355 355 356 357 357 358 359 0 3 3 4 5 4 5 7 13 18 20 24 21 15 349 281 268 249
78 354 58 84 115 141 157 145 150 141 35 39 22 325 43 29 81 93 114 119 87 143 228 5 139 149 95 133 182 130 139 127 121 118 110 103 78 60 53 45 38 33 30 24 20 17 15 12 10 8 6 5 2 1 358 357 360 0 358 0 0 360 1 2 2 3 4 4 3 2 2 2 359 356 355 355 354 353 356 357 360 1 2 3 4 3 2 7 14 18 18 15 17 19 18 345 259
104 130 81 92 145 129 135 139 166 134 349 302 197 300 27 42 92 142 133 83 65 152 292 238 154 125 99 183 129 136 143 133 134 129 127 110 82 68 51 39 34 29 25 21 17 14 11 9 7 5 3 1 359 358 356 355 356 357 354 356 359 357 358 359 1 0 0 3 3 1 0 2 2 -0 357 356 354 351 352 352 353 357 360 2 4 4 3 3 8 13 14 13 13 14 15 16 350
119 143 97 108 77 114 141 126 170 145 253 245 224 320 37 57 180 134 98 69 31 167 335 104 137 94 105 158 129 169 166 149 146 141 138 116 96 65 39 31 28 23 21 18 15 12 8 7 5 3 2 359 357 355 353 352 353 354 352 353 356 356 355 355 357 358 357 358 0 1 358 357 0 2 360 357 355 352 352 351 350 351 354 -0 2 3 3 2 4 9 11 10 11 12 8 7 6
114 126 82 105 68 93 162 141 161 148 185 208 174 109 77 23 354 37 47 118 79 3 2 70 104 16 160 168 196 190 165 155 152 149 147 128 106 40 27 26 22 20 19 14 13 11 8 7 4 3 1 358 355 353 351 350 350 350 348 350 353 353 354 353 352 354 354 353 353 357 359 357 357 360 -0 358 355 351 351 353 352 350 348 353 358 360 3 1 2 6 9 6 5 10 13 13 9
102 109 70 89 109 131 173 147 130 135 192 184 166 122 82 357 12 60 312 171 128 9 17 13 344 330 180 185 181 162 156 155 155 156 157 149 125 16 12 14 14 14 13 11 10 9 9 6 3 2 359 357 354 351 349 347 348 347 346 346 349 351 352 353 351 351 351 351 349 350 355 360 360 358 358 358 356 352 350 353 353 353 349 348 351 354 360 1 1 3 5 2 358 0 8 18 20
70 80 67 78 133 155 177 172 160 160 168 181 204 118 98 345 342 121 14 48 87 21 26 356 353 17 67 116 140 147 151 156 158 162 167 168 267 338 351 359 359 356 358 3 8 6 4 2 359 358 356 355 351 349 346 344 346 346 346 346 346 348 350 351 351 352 351 351 349 346 349 356 1 359 358 355 354 354 353 354 355 356 353 351 349 344 348 356 359 1 2 360 356 354 358 12 22
58 75 84 102 153 148 173 181 181 147 146 192 210 160 130 161 230 167 44 36 48 41 20 358 23 39 69 111 132 145 155 162 166 176 182 201 296 329 347 354 351 344 345 351 358 0 357 355 355 354 353 352 349 347 344 342 343 344 348 348 348 349 350 352 352 353 352 350 350 349 348 349 353 358 -0 354 351 354 355 356 357 357 356 355 351 343 339 341 346 355 2 0 357 355 353 1 14
75 108 87 150 193 154 159 173 176 144 150 172 170 167 157 162 175 151 92 322 341 67 10 345 26 39 85 125 140 153 163 168 178 190 194 228 285 320 336 336 335 331 335 339 345 351 352 351 351 350 349 347 345 343 342 342 341 342 345 347 348 350 350 352 353 353 352 351 350 349 349 346 345 349 357 356 351 351 354 356 356 355 355 356 354 347 344 340 333 337 352 358 357 356 355 356 3
86 106 81 207 204 143 13 160 161 146 141 142 157 181 166 162 168 134 134 169 261 164 188 212 195 201 174 168 164 164 170 173 180 187 194 221 255 285 297 305 311 313 322 331 338 345 347 347 347 347 346 343 340 338 338 339 339 339 340 343 346 347 347 348 351 352 351 351 350 348 347 347 344 343 347 352 354 353 353 353 354 353 351 354 354 351 349 348 341 330 334 347 353 356 357 357 357
71 89 130 180 161 105 327 118 127 130 135 144 158 145 139 176 165 129 139 124 276 241 210 196 195 190 185 194 186 178 176 171 174 183 200 219 243 257 262 279 289 298 309 319 331 339 342 344 343 342 342 339 336 333 332 334 335 335 334 339 341 343 343 342 345 347 348 348 349 347 344 345 345 343 342 344 350 355 355 354 354 353 350 350 352 353 352 351 351 346 338 341 349 354 357 358 356
66 3 139 148 127 124 241 113 119 129 114 126 147 147 154 166 116 154 157 155 221 237 219 209 195 180 178 186 189 186 179 171 175 189 207 224 236 246 255 265 276 288 298 310 326 336 338 340 339 337 336 333 331 329 327 327 329 329 328 332 334 337 337 335 338 340 343 345 345 346 344 343 343 344 344 342 345 350 355 357 357 355 352 351 350 351 352 352 353 353 351 347 349 352 355 358 356
90 24 57 87 129 139 181 130 132 145 116 131 162 155 127 128 151 184 185 206 234 268 233 206 192 179 176 177 183 186 182 178 184 200 218 229 238 249 258 263 271 285 294 308 325 332 335 339 335 330 329 326 326 326 322 321 323 323 323 325 327 329 328 326 328 330 335 338 340 343 342 339 339 340 342 343 343 345 349 352 354 354 353 353 352 351 351 353 353 353 354 352 350 350 353 357 356
87 114 21 38 93 113 131 117 124 113 112 152 154 126 126 152 161 165 221 247 268 289 223 176 175 173 171 175 187 191 188 187 196 215 228 239 248 257 265 266 272 284 293 306 321 328 332 336 331 324 323 320 319 320 317 316 317 317 319 318 316 317 316 314 317 320 324 328 332 338 338 335 333 333 336 340 341 341 342 344 347 350 351 352 351 351 351 352 354 354 353 353 352 351 352 353 354
72 125 146 76 66 55 74 85 88 86 97 118 104 101 214 183 158 157 226 252 262 251 146 148 156 162 173 187 197 196 195 198 206 219 230 245 253 258 264 266 272 281 290 303 316 323 325 327 324 318 315 312 308 307 306 307 307 307 311 311 309 309 310 309 309 311 316 320 324 329 332 331 327 325 326 332 335 336 337 338 341 346 349 351 351 351 352 352 354 354 354 354 354 353 353 351 350
130 112 118 111 88 78 86 73 80 98 120 111 86 10 298 257 249 223 219 224 222 181 138 148 151 162 190 202 204 201 200 204 210 220 233 248 251 253 262 267 271 279 290 302 312 318 317 315 313 309 304 302 299 299 300 303 304 304 308 311 312 314 315 312 308 307 311 314 317 321 324 325 321 317 316 320 326 330 334 336 339 343 347 351 354 353 352 349 350 353 353 354 354 354 353 352 350
128 99 86 82 88 299 74 84 116 132 125 97 107 201 267 280 303 256 220 200 187 162 161 178 165 183 204 210 215 209 207 212 215 223 236 245 247 251 261 269 274 283 293 301 312 314 312 310 308 303 300 299 298 301 306 309 311 309 312 315 316 319 320 319 315 310 309 307 306 308 312 316 315 309 308 311 316 323 329 334 338 340 343 348 352 354 353 349 346 348 351 352 353 353 350 350 351
101 107 90 38 14 46 73 101 201 238 100 118 120 146 272 297 277 239 210 180 173 170 182 199 191 203 211 214 223 218 219 223 222 225 236 245 251 256 262 270 278 287 293 300 311 311 310 311 309 305 302 304 306 309 312 314 316 315 315 315 315 317 319 321 320 317 312 307 300 296 297 304 309 306 303 305 311 316 322 332 338 338 342 345 348 352 356 357 353 348 346 347 349 350 348 348 348
90 95 99 348 4 69 129 152 194 208 151 166 129 70 280 233 235 245 200 165 167 179 192 206 207 215 219 220 227 224 227 230 228 231 240 250 259 262 264 272 281 290 294 301 309 309 310 311 309 308 306 309 313 314 315 316 316 316 316 314 314 314 315 318 320 322 321 317 310 302 295 293 300 305 300 300 306 310 318 330 335 338 344 346 347 348 352 358 359 357 352 348 347 348 348 348 346
94 51 88 341 5 12 237 311 179 175 173 174 141 315 270 235 242 247 184 163 162 190 207 212 215 219 223 225 229 232 233 232 232 236 243 254 261 261 265 275 286 294 298 303 305 305 304 303 304 306 308 311 314 314 315 316 317 316 316 315 313 312 313 314 316 320 324 327 324 318 308 292 291 303 299 297 303 308 320 330 332 340 348 348 347 347 348 352 355 359 360 355 351 350 348 348 348
87 19 50 31 4 271 290 348 72 83 171 163 86 294 261 265 262 230 176 172 172 196 213 214 220 222 225 227 228 239 238 235 235 240 248 256 258 262 272 282 288 290 296 300 299 296 292 294 301 303 306 310 314 316 317 317 318 316 315 314 312 311 311 310 310 314 321 330 332 334 334 310 294 305 304 302 313 322 330 334 334 342 345 344 347 348 348 349 352 355 359 360 357 354 350 347 346
40 12 318 346 261 270 309 334 72 51 218 144 97 264 263 271 266 212 174 178 184 203 217 215 222 224 224 231 230 239 245 243 244 246 252 255 258 267 277 280 280 283 291 291 287 284 284 290 297 299 302 306 311 315 314 313 313 313 313 311 310 310 309 308 308 311 315 322 330 339 356 359 335 320 322 323 329 332 337 338 336 337 335 340 345 348 350 349 349 350 353 357 357 355 352 349 346
6 42 290 292 289 302 317 318 81 17 234 175 180 245 277 268 266 209 178 185 195 211 225 220 225 228 226 231 232 237 248 252 254 252 253 257 263 267 265 264 273 281 281 277 275 276 282 290 295 297 300 304 309 309 306 308 310 310 309 308 307 305 304 304 304 306 309 311 321 335 350 7 16 18 4 357 355 349 347 340 334 330 329 336 341 345 350 347 346 346 347 350 353 352 350 349 346
323 22 339 277 278 298 312 298 305 7 83 242 232 242 266 264 268 221 195 193 198 217 228 224 226 229 229 231 235 239 241 249 252 252 256 260 260 249 240 257 270 269 266 266 270 275 284 293 295 296 299 304 309 308 308 309 310 308 306 305 302 300 298 300 302 302 306 305 310 322 328 335 347 360 7 8 10 4 357 342 332 330 329 331 335 340 343 341 343 344 343 345 347 346 347 346 343
266 294 301 303 288 251 277 273 283 22 32 266 263 261 268 271 268 229 208 196 202 221 227 229 232 230 233 233 235 238 239 245 246 250 256 250 230 223 238 257 256 256 261 263 267 277 288 292 294 296 299 305 309 308 308 307 308 305 304 302 299 298 297 298 302 302 304 306 307 313 318 318 320 327 335 342 349 347 343 335 329 329 328 327 331 335 336 338 341 342 341 341 340 341 343 342 340
214 241 225 265 287 263 256 260 263 17 329 276 258 255 270 280 277 243 213 199 209 229 233 237 238 233 236 235 237 239 239 243 246 252 250 224 217 228 243 245 245 253 259 264 273 283 289 289 293 296 299 305 307 306 306 305 306 305 303 303 301 302 300 297 299 302 305 307 308 312 314 314 313 314 315 318 326 333 334 332 328 328 328 329 332 334 336 338 341 340 339 339 337 337 338 339 340
187 186 208 257 277 275 268 269 271 358 340 268 238 251 271 278 279 260 209 196 214 232 236 239 238 234 234 234 238 237 238 245 250 251 230 212 219 230 234 236 244 253 258 268 279 284 286 288 291 294 298 303 305 307 306 306 307 307 306 307 308 309 307 302 298 300 306 307 308 312 312 311 310 311 311 309 312 318 323 326 327 327 327 329 331 332 332 333 334 335 335 335 335 336 337 338 337
148 171 233 283 274 273 286 276 268 6 19 276 273 284 274 270 274 262 175 184 217 222 224 234 234 234 236 235 239 239 242 248 243 228 209 208 218 224 228 238 247 254 262 273 280 280 281 285 288 292 297 301 305 307 304 303 305 306 306 307 310 311 308 304 299 299 302 303 305 309 309 306 305 308 309 308 309 310 314 318 321 323 324 324 323 322 323 325 327 329 331 332 334 335 333 331 335
107 142 183 293 278 286 304 287 240 25 19 292 313 309 284 274 270 254 184 197 224 219 220 231 230 233 236 234 237 240 245 244 231 216 208 211 218 222 231 243 250 257 267 274 273 272 276 280 285 290 295 299 303 303 299 299 303 304 304 306 309 308 306 303 298 298 300 302 307 307 303 303 304 307 310 313 312 311 312 314 316 318 319 320 319 318 319 320 322 324 327 329 330 329 325 328 338
154 185 188 283 292 0 301 296 320 293 245 268 302 300 287 293 302 284 221 217 247 244 233 240 233 233 238 236 236 234 236 237 231 224 215 212 215 224 234 242 250 257 264 266 262 264 271 276 281 286 291 295 297 298 296 298 303 304 304 307 308 305 304 303 297 297 302 307 311 306 301 306 310 310 313 316 314 313 312 312 314 315 316 318 317 317 318 318 318 318 321 322 323 327 327 329 333
273 211 190 246 275 231 243 287 327 314 283 254 301 307 293 322 342 300 291 249 259 258 251 255 243 237 245 251 246 236 233 233 229 227 220 214 218 227 235 242 250 254 256 256 256 262 268 273 278 281 285 288 292 295 296 300 304 305 308 309 307 303 303 306 302 302 308 312 313 307 305 311 313 312 313 314 314 314 313 312 314 315 317 318 316 318 317 317 317 316 319 318 317 322 323 323 319
303 232 204 221 267 261 263 307 336 342 350 338 0 352 297 310 298 270 310 318 262 248 243 253 250 242 244 247 247 240 236 235 230 229 224 220 225 231 235 239 244 247 249 251 255 262 266 270 274 276 278 282 289 292 295 301 302 304 308 303 299 300 299 303 304 303 306 311 311 306 307 310 311 312 314 316 318 318 317 317 316 317 318 317 317 317 315 317 318 317 318 314 311 312 309 311 312
324 246 197 206 271 282 280 296 341 346 297 307 44 83 269 299 285 270 314 299 274 271 252 254 255 249 238 239 245 241 236 235 232 231 224 222 226 228 231 237 240 244 246 248 254 259 262 266 268 269 273 279 284 288 294 296 297 301 300 291 290 292 290 296 299 294 296 302 304 304 307 312 315 317 317 320 322 319 319 317 313 313 313 313 315 314 312 314 311 310 313 311 310 308 301 304 305
285 231 123 302 301 300 277 203 171 230 280 323 14 110 232 289 272 274 324 295 281 279 263 258 253 247 242 240 243 240 236 231 226 228 221 221 224 224 231 237 240 244 245 245 251 256 258 260 263 265 270 276 279 285 290 291 294 296 289 282 284 284 286 293 291 289 294 298 301 304 309 315 321 321 314 315 315 313 314 313 310 311 309 311 312 309 307 307 306 310 312 307 301 299 302 307 307
262 257 317 301 298 293 174 138 166 269 354 328 318 73 158 276 268 295 342 293 282 276 264 260 252 246 243 242 242 240 239 233 224 225 221 220 222 226 233 237 240 244 244 247 252 254 254 256 258 262 267 273 277 282 286 288 290 287 280 279 281 281 282 284 285 291 296 297 299 301 305 312 315 310 305 308 309 310 313 313 313 313 312 314 311 305 304 304 307 310 306 298 295 294 296 300 305
277 300 312 329 53 54 89 109 143 38 25 271 262 78 80 278 279 301 348 262 265 266 262 260 256 252 245 242 244 242 241 235 228 228 224 221 224 230 234 235 240 244 245 249 251 248 248 251 252 258 265 271 276 279 280 283 285 281 278 278 277 276 279 285 289 292 293 295 296 296 301 304 302 299 302 306 307 310 314 315 314 312 312 312 305 302 305 306 308 306 299 296 296 295 293 292 294
312 342 333 12 46 50 63 69 91 61 342 257 242 193 97 296 283 259 222 225 228 245 269 270 263 260 251 244 244 242 238 234 228 228 228 227 229 232 231 232 238 243 245 245 243 242 244 246 250 256 263 268 272 274 275 277 279 277 275 273 269 272 281 288 289 288 289 291 290 293 297 295 292 297 302 304 306 310 312 312 312 311 310 307 303 304 306 306 306 303 299 297 294 293 292 288 285
1 13 343 358 1 27 25 352 42 61 283 257 238 256 109 226 267 251 237 242 225 225 256 267 264 258 252 245 242 240 237 233 227 226 228 226 227 226 224 229 237 239 238 238 238 240 241 244 249 253 259 264 267 269 271 272 274 273 270 266 267 274 281 282 279 280 284 286 287 290 292 291 293 298 300 301 303 308 310 310 310 309 307 305 303 303 302 301 301 299 297 295 292 290 287 283 279
28 30 25 22 356 5 6 335 15 229 256 214 192 272 243 228 253 261 263 266 248 228 233 249 258 256 252 247 243 241 235 231 227 224 224 220 221 221 220 226 232 234 235 236 237 238 241 245 247 250 256 261 263 266 267 268 270 268 264 264 269 273 273 271 272 275 279 283 285 286 288 290 294 296 297 298 301 306 308 308 308 307 305 304 303 302 300 299 296 293 290 288 286 284 281 278 274
19 42 73 72 46 12 326 301 335 287 276 231 185 236 281 272 268 246 248 261 254 235 233 242 252 254 254 252 249 249 240 232 228 225 225 222 220 221 223 227 230 233 236 236 237 238 240 243 245 247 253 258 260 262 264 266 266 262 260 263 267 269 267 266 268 271 276 280 279 280 285 289 291 292 294 296 300 304 305 306 306 305 304 304 304 303 301 298 294 290 287 283 281 279 276 274 271
0 166 127 115 132 126 258 254 269 292 300 288 217 211 218 267 283 231 226 258 266 256 251 252 258 256 260 270 268 259 246 238 232 228 229 228 226 225 227 229 231 234 236 236 237 238 238 241 243 244 248 254 257 259 263 264 261 258 259 261 264 267 265 263 263 266 269 271 273 278 284 287 288 289 292 295 298 301 303 305 305 304 304 304 303 302 299 296 293 289 285 281 277 275 273 271 269
279 158 105 77 170 152 173 203 190 227 324 296 249 232 208 235 281 278 284 293 283 277 270 268 266 261 261 270 263 253 248 242 231 230 233 232 230 228 228 230 232 233 234 235 236 236 236 239 241 243 247 252 255 258 261 262 260 258 258 259 262 260 256 256 259 262 263 265 271 278 282 284 285 288 291 293 294 297 300 302 303 301 301 301 300 299 296 293 290 286 283 279 275 272 270 268 267
95 109 183 220 160 124 110 283 0 71 24 283 274 270 280 314 294 302 357 322 295 294 281 264 262 265 265 260 257 251 248 244 233 231 233 232 229 228 229 229 229 230 231 233 235 236 237 239 239 242 245 249 252 256 258 259 259 259 258 258 258 255 252 255 259 261 263 268 272 275 277 279 283 286 288 288 290 294 296 296 296 296 297 298 298 297 294 291 288 284 280 276 274 272 269 266 265
111 210 213 175 97 90 96 346 349 43 238 274 310 288 295 349 302 312 347 307 288 287 279 269 269 269 259 254 255 252 247 245 242 239 236 235 230 228 229 228 228 230 232 234 236 237 238 239 239 241 243 246 250 254 256 257 258 258 257 254 250 251 253 255 258 261 264 269 270 270 272 276 280 282 283 285 288 289 290 290 291 293 295 295 295 294 292 290 286 282 278 275 273 271 269 266 264
122 201 178 97 111 262 41 85 331 355 285 284 304 298 285 210 234 289 302 283 283 288 285 279 273 263 254 256 256 255 253 249 245 242 237 235 230 228 227 227 229 231 233 235 236 237 237 237 239 240 243 247 251 253 254 255 256 257 256 252 248 249 252 254 257 260 263 265 266 268 271 275 277 279 280 282 283 283 286 288 290 291 292 292 293 291 289 286 283 279 276 273 272 270 267 265 264
51 26 21 35 149 176 187 157 167 200 264 286 316 325 289 227 208 238 272 278 281 284 284 277 267 259 254 256 257 255 251 245 241 238 236 232 229 228 226 226 229 230 232 233 233 233 234 236 237 238 241 245 247 249 250 252 255 257 254 248 246 247 248 250 254 257 259 261 264 267 271 273 274 275 277 278 279 282 285 287 287 287 289 290 290 289 285 281 276 273 272 271 270 268 265 264 263
112 104 262 314 92 134 235 263 141 145 169 224 296 307 277 260 208 218 261 277 272 265 267 268 268 265 260 257 256 255 249 245 242 237 235 233 230 229 228 229 230 230 230 230 229 231 233 234 234 235 238 241 242 244 247 250 254 255 249 242 242 245 246 249 252 255 257 260 264 266 269 271 273 275 276 276 278 283 284 284 285 286 287 288 287 284 279 274 270 268 268 268 268 266 264 264 263
158 182 199 182 142 119 92 298 292 112 156 184 183 283 278 272 189 210 249 263 264 258 253 263 272 270 269 264 256 251 249 248 245 238 235 232 229 228 227 227 227 225 226 226 227 229 230 231 233 234 236 238 240 242 246 250 252 251 248 243 243 245 246 249 252 255 257 260 264 266 269 272 273 274 275 276 279 283 283 283 284 285 285 284 282 277 272 269 267 266 265 265 265 264 264 264 263